• In Lithuania
  • List of Countries
  • For 7 days
  • Water Temperature
  • Satellite Maps
  • Weather Map
  • Weather Widgets
  • user-avatar
    Login

    Hourly Weather Zanzibar

    Today, 21 January, Sunday

    Time Temperature Precipitation Wind Pressure Humidity
    00:00 +27°C° 0 mm 3 mps 759 mmHg 82%
    01:00 +27°C° 0 mm 3 mps 758 mmHg 83%
    02:00 +27°C° 0 mm 3 mps 758 mmHg 85%
    03:00 +27°C° 0 mm 3 mps 758 mmHg 86%
    04:00 +26°C° 0 mm 3 mps 758 mmHg 87%
    05:00 +26°C° 0 mm 2 mps 758 mmHg 89%
    06:00 +26°C° 0 mm 2 mps 758 mmHg 90%
    07:00 +27°C° 0 mm 3 mps 759 mmHg 84%
    08:00 +29°C° 0 mm 3 mps 759 mmHg 78%
    09:00 +30°C° 0 mm 4 mps 759 mmHg 69%
    10:00 +33°C° 0 mm 4 mps 758 mmHg 64%
    11:00 +34°C° 0 mm 5 mps 758 mmHg 58%
    12:00 +36°C° 0 mm 5 mps 758 mmHg 53%
    13:00 +36°C° 0 mm 5 mps 757 mmHg 52%
    14:00 +36°C° 0 mm 6 mps 756 mmHg 52%
    15:00 +35°C° 0 mm 6 mps 756 mmHg 56%
    16:00 +34°C° 0 mm 6 mps 756 mmHg 58%
    17:00 +33°C° 0 mm 6 mps 756 mmHg 61%
    18:00 +33°C° 0 mm 6 mps 755 mmHg 63%
    19:00 +30°C° 0 mm 6 mps 756 mmHg 69%
    20:00 +29°C° 0 mm 6 mps 757 mmHg 75%
    21:00 +28°C° 0 mm 6 mps 757 mmHg 81%
    22:00 +28°C° 0 mm 6 mps 757 mmHg 82%
    23:00 +28°C° 0 mm 6 mps 758 mmHg 84%

    Tomorrow, 22 January, Monday

    Time Temperature Precipitation Wind Pressure Humidity
    00:00 +28°C° 0 mm 5 mps 758 mmHg 85%
    01:00 +28°C° 0 mm 5 mps 758 mmHg 84%
    02:00 +28°C° 0 mm 5 mps 757 mmHg 84%
    03:00 +28°C° 0 mm 5 mps 757 mmHg 84%
    04:00 +28°C° 0.1 mm 6 mps 757 mmHg 84%
    05:00 +28°C° 0.1 mm 6 mps 757 mmHg 84%
    06:00 +27°C° 0.1 mm 6 mps 758 mmHg 84%
    07:00 +28°C° 0.1 mm 6 mps 758 mmHg 80%
    08:00 +29°C° 0.1 mm 6 mps 758 mmHg 75%
    09:00 +30°C° 0.1 mm 6 mps 759 mmHg 71%
    10:00 +32°C° 0 mm 6 mps 758 mmHg 66%
    11:00 +33°C° 0 mm 6 mps 758 mmHg 61%
    12:00 +34°C° 0 mm 7 mps 757 mmHg 56%
    13:00 +34°C° 0 mm 7 mps 757 mmHg 54%
    14:00 +35°C° 0 mm 7 mps 756 mmHg 53%
    15:00 +35°C° 0 mm 7 mps 755 mmHg 51%
    16:00 +34°C° 0 mm 6 mps 755 mmHg 54%
    17:00 +33°C° 0 mm 6 mps 755 mmHg 58%
    18:00 +32°C° 0 mm 6 mps 755 mmHg 61%
    19:00 +30°C° 0 mm 6 mps 756 mmHg 67%
    20:00 +29°C° 0 mm 5 mps 756 mmHg 72%
    21:00 +28°C° 0 mm 5 mps 757 mmHg 77%
    22:00 +28°C° 0 mm 5 mps 757 mmHg 78%
    23:00 +28°C° 0 mm 5 mps 758 mmHg 80%

    Day after tomorrow, 23 January, Tuesday

    Time Temperature Precipitation Wind Pressure Humidity
    00:00 +28°C° 0 mm 5 mps 758 mmHg 81%
    01:00 +28°C° 0 mm 5 mps 757 mmHg 83%
    02:00 +28°C° 0 mm 5 mps 757 mmHg 84%
    03:00 +27°C° 0 mm 5 mps 756 mmHg 86%
    04:00 +27°C° 0 mm 5 mps 757 mmHg 86%
    05:00 +27°C° 0 mm 5 mps 757 mmHg 86%
    06:00 +27°C° 0 mm 5 mps 757 mmHg 87%
    07:00 +28°C° 0 mm 5 mps 758 mmHg 82%
    08:00 +28°C° 0 mm 5 mps 758 mmHg 78%
    09:00 +29°C° 0 mm 5 mps 759 mmHg 73%
    10:00 +30°C° 0 mm 5 mps 758 mmHg 68%
    11:00 +32°C° 0 mm 5 mps 758 mmHg 62%
    12:00 +33°C° 0 mm 5 mps 758 mmHg 56%
    13:00 +33°C° 0 mm 5 mps 757 mmHg 55%
    14:00 +34°C° 0 mm 5 mps 756 mmHg 53%
    15:00 +34°C° 0 mm 6 mps 755 mmHg 52%
    16:00 +33°C° 0 mm 6 mps 755 mmHg 56%
    17:00 +32°C° 0 mm 6 mps 755 mmHg 59%
    18:00 +32°C° 0 mm 6 mps 755 mmHg 63%
    19:00 +30°C° 0 mm 6 mps 756 mmHg 68%
    20:00 +29°C° 0 mm 6 mps 757 mmHg 73%
    21:00 +28°C° 0 mm 5 mps 758 mmHg 78%
    22:00 +27°C° 0 mm 5 mps 758 mmHg 79%
    23:00 +27°C° 0 mm 4 mps 758 mmHg 80%

    24 January, Wednesday

    Time Temperature Precipitation Wind Pressure Humidity
    00:00 +27°C° 0 mm 4 mps 758 mmHg 81%
    01:00 +27°C° 0 mm 4 mps 758 mmHg 81%
    02:00 +27°C° 0 mm 4 mps 757 mmHg 82%
    03:00 +27°C° 0 mm 4 mps 757 mmHg 82%
    04:00 +27°C° 0.1 mm 4 mps 757 mmHg 83%
    05:00 +27°C° 0.1 mm 4 mps 757 mmHg 84%
    06:00 +27°C° 0.1 mm 4 mps 758 mmHg 84%
    07:00 +27°C° 0.1 mm 4 mps 758 mmHg 83%
    08:00 +28°C° 0.1 mm 4 mps 759 mmHg 81%
    09:00 +28°C° 0.1 mm 3 mps 759 mmHg 80%
    10:00 +30°C° 0 mm 4 mps 759 mmHg 70%
    11:00 +33°C° 0 mm 4 mps 759 mmHg 61%
    12:00 +35°C° 0 mm 4 mps 758 mmHg 51%
    13:00 +35°C° 0 mm 5 mps 757 mmHg 50%
    14:00 +35°C° 0 mm 5 mps 756 mmHg 49%
    15:00 +35°C° 0 mm 5 mps 755 mmHg 48%
    16:00 +34°C° 0 mm 6 mps 755 mmHg 52%
    17:00 +33°C° 0 mm 6 mps 755 mmHg 56%
    18:00 +32°C° 0 mm 6 mps 755 mmHg 60%
    19:00 +30°C° 0 mm 6 mps 756 mmHg 66%
    20:00 +29°C° 0 mm 6 mps 757 mmHg 71%
    21:00 +28°C° 0 mm 5 mps 758 mmHg 77%
    22:00 +28°C° 0 mm 5 mps 758 mmHg 78%
    23:00 +27°C° 0 mm 5 mps 758 mmHg 80%

    25 January, Thursday

    Time Temperature Precipitation Wind Pressure Humidity
    00:00 +27°C° 0 mm 5 mps 758 mmHg 81%
    01:00 +27°C° 0 mm 5 mps 757 mmHg 82%
    02:00 +27°C° 0 mm 5 mps 757 mmHg 83%
    03:00 +27°C° 0 mm 5 mps 756 mmHg 84%
    04:00 +27°C° 0 mm 4 mps 756 mmHg 84%
    05:00 +27°C° 0 mm 4 mps 757 mmHg 84%
    06:00 +27°C° 0 mm 4 mps 757 mmHg 84%
    07:00 +28°C° 0 mm 4 mps 758 mmHg 78%
    08:00 +29°C° 0 mm 4 mps 758 mmHg 73%
    09:00 +30°C° 0 mm 4 mps 758 mmHg 67%
    10:00 +33°C° 0 mm 4 mps 758 mmHg 61%
    11:00 +34°C° 0 mm 4 mps 757 mmHg 54%
    12:00 +36°C° 0 mm 4 mps 757 mmHg 48%
    13:00 +36°C° 0 mm 5 mps 756 mmHg 46%
    14:00 +36°C° 0 mm 5 mps 755 mmHg 44%
    15:00 +38°C° 0 mm 6 mps 754 mmHg 42%
    16:00 +35°C° 0 mm 6 mps 754 mmHg 48%
    17:00 +34°C° 0 mm 6 mps 754 mmHg 54%
    18:00 +33°C° 0 mm 6 mps 754 mmHg 60%
    19:00 +32°C° 0 mm 6 mps 755 mmHg 67%
    20:00 +29°C° 0 mm 6 mps 755 mmHg 75%
    21:00 +28°C° 0 mm 6 mps 756 mmHg 82%
    22:00 +28°C° 0 mm 6 mps 756 mmHg 84%
    23:00 +28°C° 0 mm 6 mps 756 mmHg 85%

    26 January, Friday

    Time Temperature Precipitation Wind Pressure Humidity
    00:00 +27°C° 0 mm 5 mps 756 mmHg 86%
    01:00 +28°C° 0 mm 5 mps 756 mmHg 85%
    02:00 +28°C° 0 mm 5 mps 756 mmHg 84%
    03:00 +28°C° 0 mm 5 mps 755 mmHg 83%
    04:00 +28°C° 0 mm 5 mps 756 mmHg 84%
    05:00 +28°C° 0 mm 5 mps 756 mmHg 84%
    06:00 +27°C° 0 mm 5 mps 757 mmHg 85%
    07:00 +28°C° 0 mm 5 mps 757 mmHg 80%
    08:00 +29°C° 0 mm 5 mps 758 mmHg 75%
    09:00 +30°C° 0 mm 5 mps 758 mmHg 70%
    10:00 +33°C° 0 mm 5 mps 757 mmHg 64%
    11:00 +34°C° 0 mm 5 mps 757 mmHg 58%
    12:00 +36°C° 0 mm 5 mps 756 mmHg 52%
    13:00 +36°C° 0 mm 5 mps 755 mmHg 50%
    14:00 +36°C° 0 mm 6 mps 755 mmHg 48%
    15:00 +36°C° 0 mm 6 mps 754 mmHg 47%
    16:00 +35°C° 0 mm 6 mps 754 mmHg 53%
    17:00 +34°C° 0 mm 6 mps 754 mmHg 60%
    18:00 +32°C° 0 mm 6 mps 754 mmHg 67%
    19:00 +30°C° 0 mm 6 mps 755 mmHg 72%
    20:00 +29°C° 0 mm 6 mps 756 mmHg 77%
    21:00 +28°C° 0 mm 6 mps 756 mmHg 82%
    22:00 +28°C° 0 mm 5 mps 756 mmHg 83%
    23:00 +28°C° 0 mm 4 mps 756 mmHg 84%
    Show more